ARIANE 1 DEB

Satellite information

Favourite Embed

Satellite Type and Status

DEBRISIN ORBIT

Key statistics

Satellite ARIANE 1 DEB at a glance.

Uptime

14488

Days in orbit

Revolutions

≈ 14.7

Per day

Orbit

SSO

Sun Synchronous Orbit

Inclination

98.0

Latest

Satellite identification and parameters

Extended collection of information and parameters for ARIANE 1 DEB.

Object identification

Identified? True

Debris? True

Object name: ARIANE 1 DEB

International designator: 1986-019AG

Object number (NORAD): 17153

Object ID (CCSDS): 17153

Country: FRANCE (FR)

Current information (Y/N): Y

RCS size: MEDIUM

Orbital parameters

Period: 98.25 minutes

Inclination: 98.0004 deg

SMA: 7053.152 km

Apoapsis: 683.807 km

Periapsis: 666.227 km

RAAN: 300.5322 deg

Eccentricy: 0.0012462

Argument of periapsis: 307.4087 deg

Mean anomaly: 52.5982 deg

Mean motion: 14.65641942 rev/day

Mean motion (dot): 0.00004969 rev/day2

B* drag term: 0.00092150542 1/REarth

Two-line elements (TLE)

Creation date: Oct. 23, 2025, 2:46 a.m.

Reference frame: TEME

Reference center: EARTH

Epoch: Oct. 22, 2025, 10:39 p.m. UTC

TLE line 0: 0 ARIANE 1 DEB

TLE line 1: 1 17153U 86019AG 25295.94398964 .00004969 00000-0 92151-3 0 9995

TLE line 2: 2 17153 98.0004 300.5322 0012462 307.4087 52.5982 14.65641942 518

Live tracking on map

Real-time ground track for satellite ARIANE 1 DEB.

In-orbit conjunctions

A list of the most updated potential collisions computed for object ARIANE 1 DEB.

Target Orbit TCA Probability of collision Miss distance Type
DELTA 1 DEB SSO 2024-11-12 17:18:38 0.005651423 255.0 (m) DEBRIS
CZ-6A DEB SSO 2024-11-12 01:14:35 0.0001528069 959.0 (m) DEBRIS

Associated space launch

SPOT 1 is a French Earth observation satellite. Viking is Sweden's first satellite.

ARIANE 1 DEB was lifted into orbit during the mission ‘Ariane 1 | SPOT 1 & Viking’, on board a Ariane 1 space rocket.

The launch took place on Feb. 22, 1986, 1:44 a.m. from Ariane Launch Area 1 (ELV).

For more information about the launch, click the button.

Launch to space Ariane 1 | SPOT 1 & Viking
Ariane 1 | SPOT 1 & Viking

Agency: N/A

Status: Launch Successful

Launch date: Feb. 22, 1986, 1:44 a.m. UTC

Rocket: Ariane 1

Launch pad: Ariane Launch Area 1 (ELV)

Location: Guiana Space Centre, French Guiana

...

Latest news about this satellite

There are no fresh news available about this satellite. Check back as we update our databases every day.


Newsletter sign-up

Weekly statistics, charts and insights to help you stay on top of the space industry.